User: anonymous   Login
Location: Unspecified
(0.0000°N, 0.0000°E)
Time: 07:42:27
(UTC+00:00)
Language:

Aussat K1 - Orbit

View from above orbital plane
View from above orbital plane
View from above satellite
View from above satellite

Ground track
Ground track

The orbit data is extracted from the following two-line orbital elements,

1 15993U 85076B   14303.05051663  .00000013  00000-0  00000+0 0  8644
2 15993 014.9093 017.7311 0003383 205.0882 212.4713 00.99765400 77203
Epoch (UTC): 30 October 2014 01:12:44
Eccentricity: 0.0003383
inclination: 14.9093°
perigee height: 35914 km
apogee height: 35943 km
right ascension of ascending node: 17.7311°
argument of perigee: 205.0882°
revolutions per day: 0.99765400
mean anomaly at epoch: 212.4713°
orbit number at epoch: 7720

The dashed part of the orbit path shows where the satellite is in the earth's shadow,  

DLR